Weather History for Amberley Military, QU

Change the Weather History Date:

Thursday, July 18, 2013

  Actual Average (YBBN) Record (YBBN)
Temperature  
Mean Temperature 58 °F -  
Max Temperature 69 °F 71 °F 77 °F (2008)
Min Temperature 46 °F 50 °F 35 °F (1996)
Degree Days  
Heating Degree Days 8    
Growing Degree Days 8 (Base 50)    
Moisture  
Dew Point 54 °F    
Average Humidity 89    
Maximum Humidity 100    
Minimum Humidity 64    
Precipitation  
Precipitation 0.00 in 0.07 in - ()
Sea Level Pressure  
Sea Level Pressure 30.21 in    
Wind  
Wind Speed 2 mph ()    
Max Wind Speed 10 mph    
Max Gust Speed -    
Visibility 4.1 miles    
Events Fog    
Averages and records for this station are not official NWS values.
T = Trace of Precipitation, MM = Missing Value Source: Averaged Metar Reports

Daily Weather History Graph

Daily Weather History Graph

Search for Another Location

Airport:

Trip Planner

Search our weather history database for the weather conditions in past years. The results will help you decide how hot, cold, wet, or windy it might be!

Date:

Astronomy

Jul. 18, 2013 Rise Set
Actual Time 6:37 AM AEST 5:13 PM AEST
Civil Twilight 6:12 AM AEST 5:38 PM AEST
Nautical Twilight 5:43 AM AEST 6:07 PM AEST
Astronomical Twilight 5:15 AM AEST 6:35 PM AEST
Moon 12:43 PM AEST (7/18) 1:29 AM AEST (7/18)
Length of Visible Light 11h 25m
Length of Day
10h 35m
Waxing Gibbous, 71% of the Moon is Illuminated
Jul 18
Waxing Gibbous
Jul 23
Full
Jul 30
Last Quarter
Aug 7
New
Aug 14
First Quarter

Hourly Weather History & Observations

Time (AEST) Temp. Dew Point Humidity Pressure Visibility Wind Dir Wind Speed Gust Speed Precip Events Conditions
12:00 AM 50.0 °F 48.2 °F 94% 30.24 in 0.2 mi SSW 4.6 mph - N/A   Scattered Clouds
12:30 AM 48.2 °F 48.2 °F 100% 30.24 in 0.2 mi SSW 3.5 mph - N/A   Unknown
1:00 AM 48.2 °F 48.2 °F 100% 30.21 in 0.4 mi Calm Calm - N/A   Unknown
1:30 AM 46.4 °F 46.4 °F 100% 30.21 in 0.3 mi Calm Calm - N/A   Scattered Clouds
2:00 AM 48.2 °F 46.4 °F 93% 30.21 in 0.2 mi Calm Calm - N/A   Mostly Cloudy
2:30 AM 48.2 °F 48.2 °F 100% 30.21 in 6.2 mi Calm Calm - N/A   Mostly Cloudy
3:00 AM 48.2 °F 46.4 °F 93% 30.21 in 5.6 mi Calm Calm - N/A   Unknown
3:30 AM 46.4 °F 46.4 °F 100% 30.21 in 0.3 mi Calm Calm - N/A   Scattered Clouds
4:00 AM 46.4 °F 46.4 °F 100% 30.21 in 0.1 mi Calm Calm - N/A   Overcast
4:30 AM 46.4 °F 46.4 °F 100% 30.21 in 0.1 mi Calm Calm - N/A   Mostly Cloudy
5:00 AM 46.4 °F 46.4 °F 100% 30.21 in 0.8 mi Calm Calm - N/A   Mostly Cloudy
5:30 AM 46.4 °F 44.6 °F 93% 30.21 in 0.1 mi Calm Calm - N/A   Overcast
6:00 AM 46.4 °F 46.4 °F 100% 30.21 in 0.9 mi Calm Calm - N/A Fog Patches of Fog
6:30 AM 48.2 °F 46.4 °F 93% 30.21 in 1.9 mi SSW 1.2 mph - N/A Fog Patches of Fog
6:43 AM 48.2 °F 48.2 °F 100% 30.24 in 6.2 mi SSW 3.5 mph - N/A   Mostly Cloudy
7:00 AM 48.2 °F 48.2 °F 100% 30.24 in 5.0 mi Calm Calm - N/A Fog Patches of Fog
7:30 AM 50.0 °F 50.0 °F 100% 30.24 in 5.6 mi Calm Calm - N/A   Mostly Cloudy
8:00 AM 53.6 °F 51.8 °F 94% 30.24 in 6.2 mi Calm Calm - N/A   Mostly Cloudy
8:30 AM 55.4 °F 53.6 °F 94% 30.24 in 6.2 mi Calm Calm - N/A   Mostly Cloudy
9:00 AM 59.0 °F 55.4 °F 88% 30.27 in 6.2 mi Calm Calm - N/A   Scattered Clouds
9:30 AM 62.6 °F 57.2 °F 82% 30.27 in 6.2 mi Calm Calm - N/A   Scattered Clouds
10:00 AM 64.4 °F 57.2 °F 77% 30.27 in 6.2 mi Calm Calm - N/A   Mostly Cloudy
10:30 AM 66.2 °F 57.2 °F 73% 30.24 in 6.2 mi South 1.2 mph - N/A   Mostly Cloudy
11:00 AM 66.2 °F 57.2 °F 73% 30.24 in 6.2 mi NNE 5.8 mph - N/A   Mostly Cloudy
11:16 AM 64.4 °F 59.0 °F 83% 30.24 in 4.3 mi North 6.9 mph - N/A   Drizzle
11:30 AM 64.4 °F 59.0 °F 83% 30.24 in 2.5 mi North 5.8 mph - N/A   Drizzle
11:39 AM 62.6 °F 60.8 °F 94% 30.21 in 3.1 mi NNW 5.8 mph - N/A   Drizzle
11:50 AM 64.4 °F 60.8 °F 88% 30.21 in 5.0 mi NW 4.6 mph - N/A   Mostly Cloudy
11:59 AM 64.4 °F 60.8 °F 88% 30.21 in 4.3 mi NNW 3.5 mph - N/A   Light Drizzle
12:22 PM 64.4 °F 60.8 °F 88% 30.21 in 3.7 mi Calm Calm - N/A   Drizzle
12:30 PM 64.4 °F 60.8 °F 88% 30.21 in 3.7 mi Calm Calm - N/A   Drizzle
12:42 PM 64.4 °F 60.8 °F 88% 30.18 in 6.2 mi Calm Calm - N/A   Light Drizzle
1:00 PM 68.0 °F 60.8 °F 78% 30.18 in 6.2 mi Calm Calm - N/A   Mostly Cloudy
1:30 PM 68.0 °F 60.8 °F 78% 30.18 in 6.2 mi SE 1.2 mph - N/A   Mostly Cloudy
2:00 PM 68.0 °F 60.8 °F 78% 30.18 in 6.2 mi ENE 5.8 mph - N/A   Mostly Cloudy
2:30 PM 69.8 °F 59.0 °F 68% 30.15 in 6.2 mi East 8.1 mph - N/A   Mostly Cloudy
3:00 PM 69.8 °F 59.0 °F 68% 30.15 in 6.2 mi ENE 9.2 mph - N/A   Scattered Clouds
3:30 PM 69.8 °F 57.2 °F 64% 30.15 in 6.2 mi NE 10.4 mph - N/A   Scattered Clouds
4:00 PM 68.0 °F 57.2 °F 68% 30.15 in 6.2 mi NE 9.2 mph - N/A   Scattered Clouds
4:30 PM 68.0 °F 57.2 °F 68% 30.18 in 6.2 mi NE 4.6 mph - N/A   Scattered Clouds
5:00 PM 66.2 °F 59.0 °F 78% 30.15 in 6.2 mi East 3.5 mph - N/A   Partly Cloudy
5:30 PM 62.6 °F 59.0 °F 88% 30.18 in 6.2 mi ENE 4.6 mph - N/A   Partly Cloudy
6:00 PM 60.8 °F 57.2 °F 88% 30.18 in 6.2 mi Calm Calm - N/A   Partly Cloudy
6:30 PM 59.0 °F 57.2 °F 94% 30.18 in 6.2 mi Calm Calm - N/A   Partly Cloudy
7:00 PM 59.0 °F 55.4 °F 88% 30.18 in 6.2 mi SSE 4.6 mph - N/A   Partly Cloudy
7:30 PM 55.4 °F 53.6 °F 94% 30.21 in 6.2 mi SSW 4.6 mph - N/A   Partly Cloudy
8:00 PM 53.6 °F 53.6 °F 100% 30.21 in 5.0 mi Calm Calm - N/A   Partly Cloudy
8:30 PM 53.6 °F 53.6 °F 100% 30.21 in 5.6 mi Calm Calm - N/A   Partly Cloudy
9:00 PM 51.8 °F 51.8 °F 100% 30.21 in 3.1 mi Calm Calm - N/A   Partly Cloudy
9:30 PM 53.6 °F 51.8 °F 94% 30.21 in 0.3 mi Calm Calm - N/A   Scattered Clouds
10:00 PM 51.8 °F 51.8 °F 100% 30.21 in 0.7 mi Calm Calm - N/A   Unknown
10:30 PM 51.8 °F 50.0 °F 94% 30.18 in 0.4 mi Calm Calm - N/A   Unknown
11:01 PM 51.8 °F 50.0 °F 94% 30.18 in 1.1 mi Calm Calm - N/A   Mostly Cloudy
11:30 PM 51.8 °F 50.0 °F 94% 30.18 in 6.2 mi Calm Calm - N/A   Mostly Cloudy